User: anonymous   Login
Location: Unspecified
(0.0000°N, 0.0000°E)
Time: 17:43:02
(UTC+01:00)
Language:

H-2A R/B - Orbit

View from above orbital plane
View from above orbital plane
View from above satellite
View from above satellite

Ground track
Ground track

The orbit data is extracted from the following two-line orbital elements,

1 26899U 01038B   17350.15575827  .00001260  00000-0  45895-3 0  9995
2 26899  28.4580 351.5632 7120806 308.2015   6.7128  2.48314129141038
Epoch (UTC): 16 December 2017 03:44:17
Eccentricity: 0.7120806
inclination: 28.4580°
perigee height: 254 km
apogee height: 33060 km
right ascension of ascending node: 351.5632°
argument of perigee: 308.2015°
revolutions per day: 2.48314129
mean anomaly at epoch: 6.7128°
orbit number at epoch: 14103

The dashed part of the orbit path shows where the satellite is in the earth's shadow,  

DLR